[Date Prev][Date Next][Thread Prev][Thread Next] - [Date Index][Thread Index][Author Index]
2 Line ISS Keps 7-18
- Subject: [sarex] 2 Line ISS Keps 7-18
- From: "Dave Larsen PhD" <doc@xxxxxxxxxxx>
- Date: Sun, 18 Jul 2004 01:27:10 -0700
ISS
1 25544U 98067A 04200.29937830 .00012065 00000-0 10373-3 0 2463
2 25544 51.6303 167.0254 0006463 18.9008 128.4259 15.69794149323206
----
Via the sarex mailing list at AMSAT.ORG courtesy of AMSAT-NA.
To unsubscribe, send "unsubscribe sarex" to Majordomo@amsat.org
AMSAT Home